Time,TemperatureF,DewpointF,PressureIn,WindDirection,WindDirectionDegrees,WindSpeedMPH,WindSpeedGustMPH,Humidity,HourlyPrecipIn,Conditions,Clouds,dailyrainin,SoftwareType,DateUTC
2013-03-01 00:02:00,25.8,16.7,27.08,West,270,0.0,0.0,68,0.00,,,0.00,VWS V14.01,2013-03-01 07:02:00,
2013-03-01 00:07:00,25.5,16.8,27.08,West,270,0.0,0.0,69,0.00,,,0.00,VWS V14.01,2013-03-01 07:07:00,
2013-03-01 00:12:00,25.3,16.6,27.08,West,270,0.0,0.0,69,0.00,,,0.00,VWS V14.01,2013-03-01 07:12:00,
2013-03-01 00:17:00,25.3,16.6,27.08,WSW,248,0.0,0.0,69,0.00,,,0.00,VWS V14.01,2013-03-01 07:17:00,
2013-03-01 00:22:00,24.9,16.5,27.09,WSW,248,0.0,0.0,70,0.00,,,0.00,VWS V14.01,2013-03-01 07:22:00,
2013-03-01 00:28:00,24.6,15.9,27.08,WSW,248,0.0,0.0,69,0.00,,,0.00,VWS V14.01,2013-03-01 07:28:00,
2013-03-01 00:33:00,24.4,15.7,27.08,WSW,248,0.0,0.0,69,0.00,,,0.00,VWS V14.01,2013-03-01 07:33:00,
2013-03-01 00:38:00,24.0,15.3,27.08,WSW,248,0.0,0.0,69,0.00,,,0.00,VWS V14.01,2013-03-01 07:38:00,
2013-03-01 00:43:00,23.9,15.2,27.08,WSW,248,0.0,0.0,69,0.00,,,0.00,VWS V14.01,2013-03-01 07:43:00,
2013-03-01 00:48:00,23.7,15.4,27.08,WSW,248,0.0,0.0,70,0.00,,,0.00,VWS V14.01,2013-03-01 07:48:00,
2013-03-01 00:53:00,23.5,15.2,27.09,WSW,248,0.0,0.0,70,0.00,,,0.00,VWS V14.01,2013-03-01 07:53:00,
2013-03-01 00:58:00,23.5,-14.9,27.08,WSW,248,0.0,0.0,17,0.00,,,0.00,VWS V14.01,2013-03-01 07:58:00,
2013-03-01 01:03:00,23.5,15.2,27.08,WSW,248,0.0,0.0,70,0.00,,,0.00,VWS V14.01,2013-03-01 08:03:00,
2013-03-01 01:08:00,23.3,15.0,27.09,WSW,248,0.0,0.0,70,0.00,,,0.00,VWS V14.01,2013-03-01 08:08:00,
2013-03-01 01:13:00,23.1,14.8,27.08,WSW,248,0.0,0.0,70,0.00,,,0.00,VWS V14.01,2013-03-01 08:13:00,
2013-03-01 01:18:00,22.8,14.5,27.08,WSW,248,0.0,0.0,70,0.00,,,0.00,VWS V14.01,2013-03-01 08:18:00,
2013-03-01 01:23:00,22.6,14.6,27.08,WNW,292,0.0,0.0,71,0.00,,,0.00,VWS V14.01,2013-03-01 08:23:00,
2013-03-01 01:28:00,22.4,14.1,27.08,WNW,292,0.0,0.0,70,0.00,,,0.00,VWS V14.01,2013-03-01 08:28:00,
2013-03-01 01:33:00,22.1,14.1,27.08,WNW,292,0.0,0.0,71,0.00,,,0.00,VWS V14.01,2013-03-01 08:33:00,
2013-03-01 01:38:00,21.9,14.0,27.08,WNW,292,0.0,0.0,71,0.00,,,0.00,VWS V14.01,2013-03-01 08:38:00,
2013-03-01 01:43:00,21.9,14.0,27.08,WNW,292,0.0,0.0,71,0.00,,,0.00,VWS V14.01,2013-03-01 08:43:00,
2013-03-01 01:48:00,21.5,13.9,27.08,WSW,248,0.0,0.0,72,0.00,,,0.00,VWS V14.01,2013-03-01 08:48:00,
2013-03-01 01:53:00,21.3,13.7,27.08,WSW,248,0.0,0.0,72,0.00,,,0.00,VWS V14.01,2013-03-01 08:53:00,
2013-03-01 01:58:00,21.0,13.4,27.08,WSW,248,0.0,0.0,72,0.00,,,0.00,VWS V14.01,2013-03-01 08:58:00,
2013-03-01 02:03:00,20.8,13.2,27.08,WSW,248,0.0,0.0,72,0.00,,,0.00,VWS V14.01,2013-03-01 09:03:00,
2013-03-01 02:08:00,20.8,13.2,27.07,West,270,0.0,0.0,72,0.00,,,0.00,VWS V14.01,2013-03-01 09:08:00,
2013-03-01 02:13:00,20.8,13.2,27.08,WNW,292,0.0,0.0,72,0.00,,,0.00,VWS V14.01,2013-03-01 09:13:00,
2013-03-01 02:19:00,20.8,13.5,27.08,WNW,292,0.0,0.0,73,0.00,,,0.00,VWS V14.01,2013-03-01 09:19:00,
2013-03-01 02:24:00,20.8,13.5,27.08,WNW,292,0.0,0.0,73,0.00,,,0.00,VWS V14.01,2013-03-01 09:24:00,
2013-03-01 02:29:00,20.4,13.1,27.08,WNW,292,0.0,0.0,73,0.00,,,0.00,VWS V14.01,2013-03-01 09:29:00,
2013-03-01 02:34:00,20.4,13.1,27.07,WNW,292,0.0,0.0,73,0.00,,,0.00,VWS V14.01,2013-03-01 09:34:00,
2013-03-01 02:39:00,20.3,13.0,27.08,WNW,292,0.0,0.0,73,0.00,,,0.00,VWS V14.01,2013-03-01 09:39:00,
2013-03-01 02:44:00,20.3,13.0,27.08,WNW,292,0.0,0.0,73,0.00,,,0.00,VWS V14.01,2013-03-01 09:44:00,
2013-03-01 02:49:00,20.4,13.1,27.08,WNW,292,0.0,0.0,73,0.00,,,0.00,VWS V14.01,2013-03-01 09:49:00,
2013-03-01 02:54:00,20.3,13.0,27.08,WNW,292,0.0,0.0,73,0.00,,,0.00,VWS V14.01,2013-03-01 09:54:00,
2013-03-01 02:59:00,20.3,13.0,27.08,WNW,292,0.0,0.0,73,0.00,,,0.00,VWS V14.01,2013-03-01 09:59:00,
2013-03-01 03:04:00,20.1,13.2,27.08,WNW,292,0.0,0.0,74,0.00,,,0.00,VWS V14.01,2013-03-01 10:04:00,
2013-03-01 03:09:00,19.9,12.7,27.08,SW,225,0.0,0.0,73,0.00,,,0.00,VWS V14.01,2013-03-01 10:09:00,
2013-03-01 03:14:00,19.7,12.5,27.08,SW,225,0.0,0.0,73,0.00,,,0.00,VWS V14.01,2013-03-01 10:14:00,
2013-03-01 03:19:00,19.4,12.2,27.09,WNW,292,0.0,0.0,73,0.00,,,0.00,VWS V14.01,2013-03-01 10:19:00,
2013-03-01 03:24:00,19.0,11.8,27.09,NW,315,0.0,0.0,73,0.00,,,0.00,VWS V14.01,2013-03-01 10:24:00,
2013-03-01 03:29:00,18.8,11.6,27.09,NW,315,0.0,0.0,73,0.00,,,0.00,VWS V14.01,2013-03-01 10:29:00,
2013-03-01 03:34:00,18.6,11.4,27.09,WNW,292,0.0,0.0,73,0.00,,,0.00,VWS V14.01,2013-03-01 10:34:00,
2013-03-01 03:39:00,18.5,11.3,27.09,West,270,0.0,0.0,73,0.00,,,0.00,VWS V14.01,2013-03-01 10:39:00,
2013-03-01 03:45:00,18.5,11.6,27.09,West,270,0.0,0.0,74,0.00,,,0.00,VWS V14.01,2013-03-01 10:45:00,
2013-03-01 03:50:00,18.3,11.4,27.09,WNW,292,0.0,0.0,74,0.00,,,0.00,VWS V14.01,2013-03-01 10:50:00,
2013-03-01 03:55:00,18.3,11.4,27.09,WNW,292,0.0,0.0,74,0.00,,,0.00,VWS V14.01,2013-03-01 10:55:00,
2013-03-01 04:00:00,18.3,11.4,27.09,WNW,292,0.0,0.0,74,0.00,,,0.00,VWS V14.01,2013-03-01 11:00:00,
2013-03-01 04:05:00,18.3,11.4,27.09,WNW,292,0.0,0.0,74,0.00,,,0.00,VWS V14.01,2013-03-01 11:05:00,
2013-03-01 04:10:00,18.1,11.2,27.09,WNW,292,0.0,0.0,74,0.00,,,0.00,VWS V14.01,2013-03-01 11:10:00,
2013-03-01 04:15:00,17.9,11.0,27.09,SSW,202,0.0,0.0,74,0.00,,,0.00,VWS V14.01,2013-03-01 11:15:00,
2013-03-01 04:20:00,17.7,10.8,27.09,West,270,0.0,0.0,74,0.00,,,0.00,VWS V14.01,2013-03-01 11:20:00,
2013-03-01 04:25:00,17.4,10.6,27.09,West,270,0.0,0.0,74,0.00,,,0.00,VWS V14.01,2013-03-01 11:25:00,
2013-03-01 04:30:00,17.4,10.6,27.09,North,0,0.0,0.0,74,0.00,,,0.00,VWS V14.01,2013-03-01 11:30:00,
2013-03-01 04:35:00,17.4,10.9,27.09,NNW,338,0.0,0.0,75,0.00,,,0.00,VWS V14.01,2013-03-01 11:35:00,
2013-03-01 04:40:00,17.2,10.4,27.09,NNW,338,0.0,0.0,74,0.00,,,0.00,VWS V14.01,2013-03-01 11:40:00,
2013-03-01 04:45:00,17.2,10.6,27.09,NW,315,0.0,0.0,75,0.00,,,0.00,VWS V14.01,2013-03-01 11:45:00,
2013-03-01 04:50:00,17.2,10.6,27.09,West,270,0.0,0.0,75,0.00,,,0.00,VWS V14.01,2013-03-01 11:50:00,
2013-03-01 04:55:00,17.2,10.6,27.09,WNW,292,0.0,0.0,75,0.00,,,0.00,VWS V14.01,2013-03-01 11:55:00,
2013-03-01 05:00:00,17.4,10.9,27.09,West,270,0.0,0.0,75,0.00,,,0.00,VWS V14.01,2013-03-01 12:00:00,
2013-03-01 05:06:00,17.4,10.9,27.09,West,270,0.0,0.0,75,0.00,,,0.00,VWS V14.01,2013-03-01 12:06:00,
2013-03-01 05:11:00,17.4,11.1,27.09,NW,315,0.0,0.0,76,0.00,,,0.00,VWS V14.01,2013-03-01 12:11:00,
2013-03-01 05:16:00,17.4,11.1,27.09,NW,315,0.0,0.0,76,0.00,,,0.00,VWS V14.01,2013-03-01 12:16:00,
2013-03-01 05:21:00,17.7,11.4,27.09,NW,315,0.0,0.0,76,0.00,,,0.00,VWS V14.01,2013-03-01 12:21:00,
2013-03-01 05:26:00,17.7,11.4,27.09,NW,315,0.0,0.0,76,0.00,,,0.00,VWS V14.01,2013-03-01 12:26:00,
2013-03-01 05:31:00,17.9,11.6,27.09,WNW,292,0.0,0.0,76,0.00,,,0.00,VWS V14.01,2013-03-01 12:31:00,
2013-03-01 05:36:00,18.1,11.8,27.10,WNW,292,0.0,0.0,76,0.00,,,0.00,VWS V14.01,2013-03-01 12:36:00,
2013-03-01 05:41:00,18.3,12.0,27.09,WSW,248,0.0,0.0,76,0.00,,,0.00,VWS V14.01,2013-03-01 12:41:00,
2013-03-01 05:46:00,18.3,12.0,27.10,WSW,248,3.3,3.3,76,0.00,,,0.00,VWS V14.01,2013-03-01 12:46:00,
2013-03-01 05:51:00,18.1,11.8,27.10,WSW,248,0.0,3.3,76,0.00,,,0.00,VWS V14.01,2013-03-01 12:51:00,
2013-03-01 05:56:00,18.1,12.1,27.10,West,270,0.0,3.3,77,0.00,,,0.00,VWS V14.01,2013-03-01 12:56:00,
2013-03-01 06:01:00,18.1,12.1,27.10,West,270,0.0,0.0,77,0.00,,,0.00,VWS V14.01,2013-03-01 13:01:00,
2013-03-01 06:06:00,18.1,12.1,27.11,West,270,0.0,0.0,77,0.00,,,0.00,VWS V14.01,2013-03-01 13:06:00,
2013-03-01 06:11:00,18.1,12.1,27.11,WSW,248,0.0,0.0,77,0.00,,,0.00,VWS V14.01,2013-03-01 13:11:00,
2013-03-01 06:16:00,18.3,12.3,27.11,West,270,0.0,0.0,77,0.00,,,0.00,VWS V14.01,2013-03-01 13:16:00,
2013-03-01 06:21:00,18.3,12.3,27.12,NW,315,0.0,0.0,77,0.00,,,0.00,VWS V14.01,2013-03-01 13:21:00,
2013-03-01 06:26:00,18.3,12.3,27.12,WNW,292,0.0,0.0,77,0.00,,,0.00,VWS V14.01,2013-03-01 13:26:00,
2013-03-01 06:31:00,18.3,12.3,27.12,West,270,0.0,0.0,77,0.00,,,0.00,VWS V14.01,2013-03-01 13:31:00,
2013-03-01 06:36:00,18.5,12.5,27.12,West,270,0.0,0.0,77,0.00,,,0.00,VWS V14.01,2013-03-01 13:36:00,
2013-03-01 06:41:00,20.1,14.6,27.12,NW,315,2.2,2.2,79,0.00,,,0.00,VWS V14.01,2013-03-01 13:41:00,
2013-03-01 06:46:00,22.8,18.1,27.12,North,0,2.4,2.4,82,0.00,,,0.00,VWS V14.01,2013-03-01 13:46:00,
2013-03-01 06:51:00,26.4,21.7,27.12,NNW,338,0.0,2.4,82,0.00,,,0.00,VWS V14.01,2013-03-01 13:51:00,
2013-03-01 06:56:00,32.1,25.4,27.12,NNE,22,0.0,2.9,76,0.00,,,0.00,VWS V14.01,2013-03-01 13:56:00,
2013-03-01 07:01:00,34.7,26.3,27.12,NW,315,0.8,0.8,71,0.00,,,0.00,VWS V14.01,2013-03-01 14:01:00,
2013-03-01 07:06:00,36.1,26.2,27.12,NNW,338,5.8,5.8,67,0.00,,,0.00,VWS V14.01,2013-03-01 14:06:00,
2013-03-01 07:11:00,36.8,25.8,27.12,NNW,338,3.3,5.8,64,0.00,,,0.00,VWS V14.01,2013-03-01 14:11:00,
2013-03-01 07:16:00,36.3,24.5,27.13,NNW,338,1.5,1.5,62,0.00,,,0.00,VWS V14.01,2013-03-01 14:16:00,
2013-03-01 07:21:00,35.2,23.5,27.13,North,0,3.1,3.1,62,0.00,,,0.00,VWS V14.01,2013-03-01 14:21:00,
2013-03-01 07:26:00,34.7,23.0,27.13,North,0,2.2,4.2,62,0.00,,,0.00,VWS V14.01,2013-03-01 14:26:00,
2013-03-01 07:32:00,34.3,23.0,27.13,NNW,338,5.5,5.5,63,0.00,,,0.00,VWS V14.01,2013-03-01 14:32:00,
2013-03-01 07:37:00,33.8,22.5,27.12,North,0,3.1,6.2,63,0.00,,,0.00,VWS V14.01,2013-03-01 14:37:00,
2013-03-01 07:42:00,33.9,23.0,27.13,NNE,22,3.8,6.2,64,0.00,,,0.00,VWS V14.01,2013-03-01 14:42:00,
2013-03-01 07:47:00,34.5,23.2,27.13,NNW,338,4.9,4.9,63,0.00,,,0.00,VWS V14.01,2013-03-01 14:47:00,
2013-03-01 07:52:00,35.2,23.9,27.13,NNW,338,2.2,4.9,63,0.00,,,0.00,VWS V14.01,2013-03-01 14:52:00,
2013-03-01 07:57:00,35.7,24.4,27.14,North,0,0.0,4.9,63,0.00,,,0.00,VWS V14.01,2013-03-01 14:57:00,
2013-03-01 08:02:00,36.3,24.5,27.13,NNW,338,5.5,5.5,62,0.00,,,0.00,VWS V14.01,2013-03-01 15:02:00,
2013-03-01 08:07:00,37.5,25.3,27.13,North,0,7.6,7.6,61,0.00,,,0.00,VWS V14.01,2013-03-01 15:07:00,
2013-03-01 08:12:00,38.1,25.5,27.14,North,0,3.8,7.6,60,0.00,,,0.00,VWS V14.01,2013-03-01 15:12:00,
2013-03-01 08:17:00,37.7,24.7,27.14,North,0,5.8,5.8,59,0.00,,,0.00,VWS V14.01,2013-03-01 15:17:00,
2013-03-01 08:22:00,37.5,24.5,27.14,North,0,6.2,10.5,59,0.00,,,0.00,VWS V14.01,2013-03-01 15:22:00,
2013-03-01 08:27:00,37.7,24.7,27.14,NW,315,8.7,10.5,59,0.00,,,0.00,VWS V14.01,2013-03-01 15:27:00,
2013-03-01 08:32:00,37.9,24.5,27.14,North,0,9.8,9.8,58,0.00,,,0.00,VWS V14.01,2013-03-01 15:32:00,
2013-03-01 08:37:00,37.7,24.3,27.14,NNW,338,9.3,9.8,58,0.00,,,0.00,VWS V14.01,2013-03-01 15:37:00,
2013-03-01 08:42:00,37.7,24.3,27.14,NW,315,11.8,11.8,58,0.00,,,0.00,VWS V14.01,2013-03-01 15:42:00,
2013-03-01 08:47:00,37.9,24.5,27.14,NW,315,10.5,10.5,58,0.00,,,0.00,VWS V14.01,2013-03-01 15:47:00,
2013-03-01 08:52:00,38.1,24.6,27.14,NE,45,6.4,13.8,58,0.00,,,0.00,VWS V14.01,2013-03-01 15:52:00,
2013-03-01 08:57:00,38.4,24.9,27.14,NNW,338,6.9,13.8,58,0.00,,,0.00,VWS V14.01,2013-03-01 15:57:00,
2013-03-01 09:02:00,39.0,25.1,27.14,NW,315,8.2,8.2,57,0.00,,,0.00,VWS V14.01,2013-03-01 16:02:00,
2013-03-01 09:07:00,40.2,25.8,27.14,WNW,292,8.9,9.6,56,0.00,,,0.00,VWS V14.01,2013-03-01 16:07:00,
2013-03-01 09:12:00,40.8,25.5,27.14,NNW,338,8.9,11.4,54,0.00,,,0.00,VWS V14.01,2013-03-01 16:12:00,
2013-03-01 09:17:00,41.5,25.7,27.14,North,0,7.1,7.1,53,0.00,,,0.00,VWS V14.01,2013-03-01 16:17:00,
2013-03-01 09:22:00,43.3,25.9,27.14,NNW,338,6.9,11.1,50,0.00,,,0.00,VWS V14.01,2013-03-01 16:22:00,
2013-03-01 09:27:00,44.0,26.1,27.14,NNW,338,13.1,13.1,49,0.00,,,0.00,VWS V14.01,2013-03-01 16:27:00,
2013-03-01 09:32:00,44.7,25.7,27.14,NW,315,9.8,10.5,47,0.00,,,0.00,VWS V14.01,2013-03-01 16:32:00,
2013-03-01 09:37:00,45.3,24.7,27.14,NNW,338,9.6,14.0,44,0.00,,,0.00,VWS V14.01,2013-03-01 16:37:00,
2013-03-01 09:43:00,45.5,25.4,27.14,NNW,338,11.4,14.0,45,0.00,,,0.00,VWS V14.01,2013-03-01 16:43:00,
2013-03-01 09:48:00,46.5,25.8,27.14,NNE,22,5.5,10.5,44,0.00,,,0.00,VWS V14.01,2013-03-01 16:48:00,
2013-03-01 09:53:00,47.4,24.9,27.14,NNE,22,8.9,13.1,41,0.00,,,0.00,VWS V14.01,2013-03-01 16:53:00,
2013-03-01 09:58:00,47.6,24.5,27.14,NNW,338,5.5,13.1,40,0.00,,,0.00,VWS V14.01,2013-03-01 16:58:00,
2013-03-01 10:03:00,47.6,23.3,27.14,NNE,22,8.2,16.7,38,0.00,,,0.00,VWS V14.01,2013-03-01 17:03:00,
2013-03-01 10:08:00,47.1,22.8,27.14,NW,315,11.6,16.7,38,0.00,,,0.00,VWS V14.01,2013-03-01 17:08:00,
2013-03-01 10:13:00,47.3,23.0,27.14,NW,315,19.0,19.0,38,0.00,,,0.00,VWS V14.01,2013-03-01 17:13:00,
2013-03-01 10:18:00,47.8,23.4,27.14,NNW,338,7.8,13.8,38,0.00,,,0.00,VWS V14.01,2013-03-01 17:18:00,
2013-03-01 10:23:00,48.7,24.2,27.13,NNE,22,4.0,13.8,38,0.00,,,0.00,VWS V14.01,2013-03-01 17:23:00,
2013-03-01 10:28:00,50.5,25.2,27.13,NW,315,6.7,13.8,37,0.00,,,0.00,VWS V14.01,2013-03-01 17:28:00,
2013-03-01 10:33:00,51.0,23.6,27.13,North,0,6.0,6.0,34,0.00,,,0.00,VWS V14.01,2013-03-01 17:33:00,
2013-03-01 10:38:00,50.7,23.4,27.13,North,0,8.7,11.8,34,0.00,,,0.00,VWS V14.01,2013-03-01 17:38:00,
2013-03-01 10:43:00,50.9,23.5,27.13,NNW,338,16.1,16.1,34,0.00,,,0.00,VWS V14.01,2013-03-01 17:43:00,
2013-03-01 10:48:00,50.9,22.8,27.13,North,0,11.8,11.8,33,0.00,,,0.00,VWS V14.01,2013-03-01 17:48:00,
2013-03-01 10:53:00,51.0,22.9,27.13,NNW,338,7.3,12.0,33,0.00,,,0.00,VWS V14.01,2013-03-01 17:53:00,
2013-03-01 10:58:00,52.5,23.5,27.13,North,0,6.2,12.0,32,0.00,,,0.00,VWS V14.01,2013-03-01 17:58:00,
2013-03-01 11:03:00,53.4,22.8,27.13,North,0,6.9,11.1,30,0.00,,,0.00,VWS V14.01,2013-03-01 18:03:00,
2013-03-01 11:08:00,53.9,24.0,27.13,NNW,338,9.3,11.1,31,0.00,,,0.00,VWS V14.01,2013-03-01 18:08:00,
2013-03-01 11:13:00,54.1,23.4,27.13,NNE,22,9.1,11.1,30,0.00,,,0.00,VWS V14.01,2013-03-01 18:13:00,
2013-03-01 11:18:00,54.1,22.6,27.12,NNW,338,6.9,6.9,29,0.00,,,0.00,VWS V14.01,2013-03-01 18:18:00,
2013-03-01 11:23:00,55.0,23.4,27.12,North,0,6.2,7.1,29,0.00,,,0.00,VWS V14.01,2013-03-01 18:23:00,
2013-03-01 11:28:00,55.2,21.8,27.13,North,0,9.3,9.3,27,0.00,,,0.00,VWS V14.01,2013-03-01 18:28:00,
2013-03-01 11:33:00,55.2,22.7,27.12,NW,315,2.9,8.5,28,0.00,,,0.00,VWS V14.01,2013-03-01 18:33:00,
2013-03-01 11:39:00,55.9,22.4,27.12,North,0,7.6,11.8,27,0.00,,,0.00,VWS V14.01,2013-03-01 18:39:00,
2013-03-01 11:44:00,56.8,23.2,27.12,NNW,338,4.9,11.8,27,0.00,,,0.00,VWS V14.01,2013-03-01 18:44:00,
2013-03-01 11:49:00,58.4,23.7,27.12,NE,45,9.8,9.8,26,0.00,,,0.00,VWS V14.01,2013-03-01 18:49:00,
2013-03-01 11:54:00,59.5,23.7,27.12,NNW,338,5.8,10.2,25,0.00,,,0.00,VWS V14.01,2013-03-01 18:54:00,
2013-03-01 11:59:00,60.4,23.5,27.12,NE,45,4.6,10.2,24,0.00,,,0.00,VWS V14.01,2013-03-01 18:59:00,
2013-03-01 12:04:00,60.6,23.6,27.12,NW,315,10.2,10.2,24,0.00,,,0.00,VWS V14.01,2013-03-01 19:04:00,
2013-03-01 12:09:00,60.8,22.8,27.12,NNW,338,7.6,10.2,23,0.00,,,0.00,VWS V14.01,2013-03-01 19:09:00,
2013-03-01 12:14:00,60.6,23.6,27.12,NNW,338,3.5,11.6,24,0.00,,,0.00,VWS V14.01,2013-03-01 19:14:00,
2013-03-01 12:19:00,60.9,22.9,27.11,NNW,338,13.6,13.6,23,0.00,,,0.00,VWS V14.01,2013-03-01 19:19:00,
2013-03-01 12:24:00,58.6,19.9,27.11,NE,45,7.6,14.0,22,0.00,,,0.00,VWS V14.01,2013-03-01 19:24:00,
2013-03-01 12:29:00,57.0,20.6,27.11,ENE,68,7.1,14.0,24,0.00,,,0.00,VWS V14.01,2013-03-01 19:29:00,
2013-03-01 12:34:00,56.1,20.8,27.11,NNW,338,5.1,5.1,25,0.00,,,0.00,VWS V14.01,2013-03-01 19:34:00,
2013-03-01 12:39:00,55.2,18.1,27.11,NNE,22,9.3,9.3,23,0.00,,,0.00,VWS V14.01,2013-03-01 19:39:00,
2013-03-01 12:44:00,54.1,19.1,27.11,NE,45,7.6,9.3,25,0.00,,,0.00,VWS V14.01,2013-03-01 19:44:00,
2013-03-01 12:49:00,53.7,18.7,27.11,NNW,338,12.0,13.1,25,0.00,,,0.00,VWS V14.01,2013-03-01 19:49:00,
2013-03-01 12:54:00,51.9,17.2,27.10,NNW,338,9.3,13.1,25,0.00,,,0.00,VWS V14.01,2013-03-01 19:54:00,
2013-03-01 12:59:00,51.0,18.2,27.10,NNE,22,9.6,13.1,27,0.00,,,0.00,VWS V14.01,2013-03-01 19:59:00,
2013-03-01 13:04:00,50.3,17.6,27.09,North,0,8.5,8.5,27,0.00,,,0.00,VWS V14.01,2013-03-01 20:04:00,
2013-03-01 13:09:00,50.1,17.4,27.10,ENE,68,4.4,8.5,27,0.00,,,0.00,VWS V14.01,2013-03-01 20:09:00,
2013-03-01 13:15:00,50.1,17.4,27.10,NNW,338,2.9,9.6,27,0.00,,,0.00,VWS V14.01,2013-03-01 20:15:00,
2013-03-01 13:20:00,49.8,18.0,27.09,NE,45,4.4,4.4,28,0.00,,,0.00,VWS V14.01,2013-03-01 20:20:00,
2013-03-01 13:25:00,49.6,17.0,27.10,North,0,10.2,10.2,27,0.00,,,0.00,VWS V14.01,2013-03-01 20:25:00,
2013-03-01 13:30:00,48.9,17.2,27.09,NW,315,7.1,10.2,28,0.00,,,0.00,VWS V14.01,2013-03-01 20:30:00,
2013-03-01 13:35:00,48.9,17.2,27.09,North,0,5.8,7.1,28,0.00,,,0.00,VWS V14.01,2013-03-01 20:35:00,
2013-03-01 13:40:00,48.9,17.2,27.09,NNW,338,5.5,7.1,28,0.00,,,0.00,VWS V14.01,2013-03-01 20:40:00,
2013-03-01 13:45:00,48.9,17.2,27.08,ENE,68,5.3,7.1,28,0.00,,,0.00,VWS V14.01,2013-03-01 20:45:00,
2013-03-01 13:50:00,49.2,17.5,27.08,NE,45,5.1,5.3,28,0.00,,,0.00,VWS V14.01,2013-03-01 20:50:00,
2013-03-01 13:55:00,49.2,16.7,27.08,NE,45,2.0,8.0,27,0.00,,,0.00,VWS V14.01,2013-03-01 20:55:00,
2013-03-01 14:00:00,49.6,17.9,27.09,NE,45,4.6,8.0,28,0.00,,,0.00,VWS V14.01,2013-03-01 21:00:00,
2013-03-01 14:05:00,50.0,17.4,27.08,NNW,338,9.6,9.6,27,0.00,,,0.00,VWS V14.01,2013-03-01 21:05:00,
2013-03-01 14:10:00,49.8,17.2,27.08,NNE,22,6.2,10.5,27,0.00,,,0.00,VWS V14.01,2013-03-01 21:10:00,
2013-03-01 14:15:00,49.2,17.5,27.08,NNW,338,0.0,10.5,28,0.00,,,0.00,VWS V14.01,2013-03-01 21:15:00,
2013-03-01 14:20:00,49.2,17.5,27.08,North,0,6.9,6.9,28,0.00,,,0.00,VWS V14.01,2013-03-01 21:20:00,
2013-03-01 14:25:00,49.2,17.5,27.08,NNW,338,4.4,6.9,28,0.00,,,0.00,VWS V14.01,2013-03-01 21:25:00,
2013-03-01 14:30:00,49.6,17.9,27.08,NW,315,7.3,7.3,28,0.00,,,0.00,VWS V14.01,2013-03-01 21:30:00,
2013-03-01 14:35:00,49.2,17.5,27.08,North,0,4.4,8.5,28,0.00,,,0.00,VWS V14.01,2013-03-01 21:35:00,
2013-03-01 14:40:00,49.2,17.5,27.08,WNW,292,2.4,8.5,28,0.00,,,0.00,VWS V14.01,2013-03-01 21:40:00,
2013-03-01 14:45:00,49.6,17.9,27.08,NNE,22,2.6,8.5,28,0.00,,,0.00,VWS V14.01,2013-03-01 21:45:00,
2013-03-01 14:50:00,49.6,17.0,27.08,NNE,22,8.0,8.0,27,0.00,,,0.00,VWS V14.01,2013-03-01 21:50:00,
2013-03-01 14:56:00,49.1,17.4,27.08,North,0,4.6,8.0,28,0.00,,,0.00,VWS V14.01,2013-03-01 21:56:00,
2013-03-01 15:01:00,48.9,17.2,27.08,North,0,5.1,5.1,28,0.00,,,0.00,VWS V14.01,2013-03-01 22:01:00,
2013-03-01 15:06:00,48.9,17.2,27.08,North,0,6.0,6.0,28,0.00,,,0.00,VWS V14.01,2013-03-01 22:06:00,
2013-03-01 15:11:00,48.7,17.1,27.08,NNW,338,3.1,7.6,28,0.00,,,0.00,VWS V14.01,2013-03-01 22:11:00,
2013-03-01 15:16:00,48.3,16.7,27.08,NNW,338,4.9,4.9,28,0.00,,,0.00,VWS V14.01,2013-03-01 22:16:00,
2013-03-01 15:21:00,48.3,17.5,27.09,NNW,338,0.0,4.9,29,0.00,,,0.00,VWS V14.01,2013-03-01 22:21:00,
2013-03-01 15:26:00,48.5,17.7,27.09,NNW,338,0.0,4.9,29,0.00,,,0.00,VWS V14.01,2013-03-01 22:26:00,
2013-03-01 15:31:00,48.5,16.9,27.08,NNW,338,0.0,0.0,28,0.00,,,0.00,VWS V14.01,2013-03-01 22:31:00,
2013-03-01 15:36:00,48.7,17.1,27.08,NE,45,0.0,0.0,28,0.00,,,0.00,VWS V14.01,2013-03-01 22:36:00,
2013-03-01 15:41:00,48.9,17.2,27.08,NE,45,2.2,2.2,28,0.00,,,0.00,VWS V14.01,2013-03-01 22:41:00,
2013-03-01 15:46:00,49.2,17.5,27.08,East,90,0.0,2.2,28,0.00,,,0.00,VWS V14.01,2013-03-01 22:46:00,
2013-03-01 15:52:00,49.2,17.5,27.08,ESE,112,2.6,2.6,28,0.00,,,0.00,VWS V14.01,2013-03-01 22:52:00,
2013-03-01 15:57:00,48.9,17.2,27.08,East,90,0.0,2.6,28,0.00,,,0.00,VWS V14.01,2013-03-01 22:57:00,
2013-03-01 16:02:00,48.5,16.9,27.08,ESE,112,3.8,3.8,28,0.00,,,0.00,VWS V14.01,2013-03-01 23:02:00,
2013-03-01 16:07:00,48.3,16.7,27.08,SSE,158,2.2,3.8,28,0.00,,,0.00,VWS V14.01,2013-03-01 23:07:00,
2013-03-01 16:12:00,48.0,16.5,27.08,SSE,158,3.1,3.8,28,0.00,,,0.00,VWS V14.01,2013-03-01 23:12:00,
2013-03-01 16:17:00,47.3,15.9,27.08,SSE,158,2.0,3.1,28,0.00,,,0.00,VWS V14.01,2013-03-01 23:17:00,
2013-03-01 16:22:00,47.1,16.5,27.08,South,180,1.3,3.1,29,0.00,,,0.00,VWS V14.01,2013-03-01 23:22:00,
2013-03-01 16:27:00,46.9,16.3,27.08,South,180,3.1,3.1,29,0.00,,,0.00,VWS V14.01,2013-03-01 23:27:00,
2013-03-01 16:32:00,46.7,16.1,27.07,SSE,158,0.6,1.7,29,0.00,,,0.00,VWS V14.01,2013-03-01 23:32:00,
2013-03-01 16:37:00,46.5,16.0,27.07,SSW,202,0.0,1.7,29,0.00,,,0.00,VWS V14.01,2013-03-01 23:37:00,
2013-03-01 16:42:00,46.5,16.0,27.07,SSE,158,0.0,1.7,29,0.00,,,0.00,VWS V14.01,2013-03-01 23:42:00,
2013-03-01 16:47:00,46.4,16.7,27.07,SSE,158,0.0,0.0,30,0.00,,,0.00,VWS V14.01,2013-03-01 23:47:00,
2013-03-01 16:52:00,46.2,16.5,27.07,SSE,158,0.0,0.0,30,0.00,,,0.00,VWS V14.01,2013-03-01 23:52:00,
2013-03-01 16:57:00,46.0,16.3,27.07,SE,135,0.0,0.0,30,0.00,,,0.00,VWS V14.01,2013-03-01 23:57:00,
2013-03-01 17:02:00,45.8,16.1,27.08,SE,135,0.0,0.0,30,0.00,,,0.00,VWS V14.01,2013-03-02 00:02:00,
2013-03-01 17:07:00,45.6,16.0,27.07,ESE,112,0.0,0.0,30,0.00,,,0.00,VWS V14.01,2013-03-02 00:07:00,
2013-03-01 17:12:00,45.5,15.9,27.08,ESE,112,1.5,2.2,30,0.00,,,0.00,VWS V14.01,2013-03-02 00:12:00,
2013-03-01 17:17:00,45.3,16.5,27.08,ESE,112,0.0,0.0,31,0.00,,,0.00,VWS V14.01,2013-03-02 00:17:00,
2013-03-01 17:22:00,45.1,16.3,27.08,SE,135,1.3,1.3,31,0.00,,,0.00,VWS V14.01,2013-03-02 00:22:00,
2013-03-01 17:27:00,44.7,15.9,27.08,ESE,112,3.1,3.1,31,0.00,,,0.00,VWS V14.01,2013-03-02 00:27:00,
2013-03-01 17:33:00,44.4,15.7,27.07,SSE,158,2.9,2.9,31,0.00,,,0.00,VWS V14.01,2013-03-02 00:33:00,
2013-03-01 17:38:00,44.2,16.2,27.07,SE,135,2.0,3.1,32,0.00,,,0.00,VWS V14.01,2013-03-02 00:38:00,
2013-03-01 17:43:00,43.7,15.8,27.07,ESE,112,1.3,3.1,32,0.00,,,0.00,VWS V14.01,2013-03-02 00:43:00,
2013-03-01 17:48:00,43.3,15.4,27.08,SE,135,2.0,2.6,32,0.00,,,0.00,VWS V14.01,2013-03-02 00:48:00,
2013-03-01 17:53:00,43.1,16.0,27.07,SE,135,2.4,2.6,33,0.00,,,0.00,VWS V14.01,2013-03-02 00:53:00,
2013-03-01 17:58:00,42.6,15.5,27.08,ESE,112,1.3,2.6,33,0.00,,,0.00,VWS V14.01,2013-03-02 00:58:00,
2013-03-01 18:03:00,42.4,15.4,27.08,ESE,112,0.0,2.0,33,0.00,,,0.00,VWS V14.01,2013-03-02 01:03:00,
2013-03-01 18:08:00,42.0,15.7,27.08,East,90,0.0,2.0,34,0.00,,,0.00,VWS V14.01,2013-03-02 01:08:00,
2013-03-01 18:13:00,41.7,15.4,27.08,ESE,112,1.7,3.3,34,0.00,,,0.00,VWS V14.01,2013-03-02 01:13:00,
2013-03-01 18:18:00,41.5,15.9,27.08,ESE,112,0.0,2.6,35,0.00,,,0.00,VWS V14.01,2013-03-02 01:18:00,
2013-03-01 18:23:00,41.1,15.6,27.08,ESE,112,2.4,2.6,35,0.00,,,0.00,VWS V14.01,2013-03-02 01:23:00,
2013-03-01 18:28:00,40.8,15.3,27.08,ESE,112,1.5,2.6,35,0.00,,,0.00,VWS V14.01,2013-03-02 01:28:00,
2013-03-01 18:33:00,40.6,15.8,27.08,ESE,112,1.7,1.7,36,0.00,,,0.00,VWS V14.01,2013-03-02 01:33:00,
2013-03-01 18:38:00,40.1,15.3,27.08,East,90,2.0,2.0,36,0.00,,,0.00,VWS V14.01,2013-03-02 01:38:00,
2013-03-01 18:43:00,39.9,15.1,27.08,East,90,2.2,2.4,36,0.00,,,0.00,VWS V14.01,2013-03-02 01:43:00,
2013-03-01 18:48:00,39.7,15.6,27.08,ENE,68,2.4,2.4,37,0.00,,,0.00,VWS V14.01,2013-03-02 01:48:00,
2013-03-01 18:53:00,39.3,15.2,27.08,East,90,0.0,2.4,37,0.00,,,0.00,VWS V14.01,2013-03-02 01:53:00,
2013-03-01 18:58:00,39.3,15.2,27.08,ESE,112,0.0,2.4,37,0.00,,,0.00,VWS V14.01,2013-03-02 01:58:00,
2013-03-01 19:03:00,39.0,15.6,27.08,ESE,112,0.0,0.6,38,0.00,,,0.00,VWS V14.01,2013-03-02 02:03:00,
2013-03-01 19:08:00,38.8,15.4,27.07,ESE,112,1.7,1.7,38,0.00,,,0.00,VWS V14.01,2013-03-02 02:08:00,
2013-03-01 19:13:00,38.4,15.0,27.07,SSW,202,4.2,4.2,38,0.00,,,0.00,VWS V14.01,2013-03-02 02:13:00,
2013-03-01 19:19:00,38.1,15.4,27.07,ESE,112,4.4,4.4,39,0.00,,,0.00,VWS V14.01,2013-03-02 02:19:00,
2013-03-01 19:24:00,37.9,15.2,27.07,SE,135,4.9,4.9,39,0.00,,,0.00,VWS V14.01,2013-03-02 02:24:00,
2013-03-01 19:29:00,37.7,15.0,27.07,SE,135,8.2,8.2,39,0.00,,,0.00,VWS V14.01,2013-03-02 02:29:00,
2013-03-01 19:34:00,37.4,15.3,27.07,South,180,2.4,3.8,40,0.00,,,0.00,VWS V14.01,2013-03-02 02:34:00,
2013-03-01 19:39:00,37.2,15.1,27.07,South,180,1.3,3.8,40,0.00,,,0.00,VWS V14.01,2013-03-02 02:39:00,
2013-03-01 19:44:00,36.6,14.6,27.07,SE,135,2.2,3.8,40,0.00,,,0.00,VWS V14.01,2013-03-02 02:44:00,
2013-03-01 19:49:00,36.5,15.1,27.07,SE,135,2.0,2.0,41,0.00,,,0.00,VWS V14.01,2013-03-02 02:49:00,
2013-03-01 19:54:00,36.3,14.9,27.07,SE,135,0.0,2.0,41,0.00,,,0.00,VWS V14.01,2013-03-02 02:54:00,
2013-03-01 19:59:00,36.3,14.9,27.07,SSE,158,4.9,4.9,41,0.00,,,0.00,VWS V14.01,2013-03-02 02:59:00,
2013-03-01 20:04:00,36.3,15.4,27.07,SSW,202,0.0,3.5,42,0.00,,,0.00,VWS V14.01,2013-03-02 03:04:00,
2013-03-01 20:09:00,36.6,15.7,27.07,SW,225,3.1,4.0,42,0.00,,,0.00,VWS V14.01,2013-03-02 03:09:00,
2013-03-01 20:14:00,36.6,15.7,27.07,South,180,1.3,4.0,42,0.00,,,0.00,VWS V14.01,2013-03-02 03:14:00,
2013-03-01 20:19:00,36.8,15.9,27.07,NW,315,0.0,6.0,42,0.00,,,0.00,VWS V14.01,2013-03-02 03:19:00,
2013-03-01 20:24:00,37.0,16.1,27.07,NW,315,0.0,6.0,42,0.00,,,0.00,VWS V14.01,2013-03-02 03:24:00,
2013-03-01 20:29:00,37.0,16.1,27.07,East,90,2.6,6.0,42,0.00,,,0.00,VWS V14.01,2013-03-02 03:29:00,
2013-03-01 20:34:00,37.2,16.2,27.07,NE,45,2.6,3.3,42,0.00,,,0.00,VWS V14.01,2013-03-02 03:34:00,
2013-03-01 20:39:00,37.2,16.2,27.07,SE,135,2.0,3.3,42,0.00,,,0.00,VWS V14.01,2013-03-02 03:39:00,
2013-03-01 20:44:00,37.2,16.2,27.07,WSW,248,0.0,3.3,42,0.00,,,0.00,VWS V14.01,2013-03-02 03:44:00,
2013-03-01 20:49:00,37.2,16.2,27.07,ENE,68,0.0,2.9,42,0.00,,,0.00,VWS V14.01,2013-03-02 03:49:00,
2013-03-01 20:54:00,37.2,16.2,27.07,NW,315,0.0,2.9,42,0.00,,,0.00,VWS V14.01,2013-03-02 03:54:00,
2013-03-01 20:59:00,37.0,16.1,27.07,SE,135,2.9,2.9,42,0.00,,,0.00,VWS V14.01,2013-03-02 03:59:00,
2013-03-01 21:04:00,37.0,16.1,27.07,SW,225,0.0,0.0,42,0.00,,,0.00,VWS V14.01,2013-03-02 04:04:00,
2013-03-01 21:09:00,36.8,15.9,27.07,SSE,158,2.0,3.8,42,0.00,,,0.00,VWS V14.01,2013-03-02 04:09:00,
2013-03-01 21:14:00,36.5,15.6,27.07,South,180,3.1,3.8,42,0.00,,,0.00,VWS V14.01,2013-03-02 04:14:00,
2013-03-01 21:19:00,36.3,15.4,27.07,SSW,202,0.0,3.1,42,0.00,,,0.00,VWS V14.01,2013-03-02 04:19:00,
2013-03-01 21:25:00,35.9,15.6,27.05,ESE,112,6.0,11.8,43,0.00,,,0.00,VWS V14.01,2013-03-02 04:25:00,
2013-03-01 21:30:00,35.9,15.6,27.06,South,180,2.6,11.8,43,0.00,,,0.00,VWS V14.01,2013-03-02 04:30:00,
2013-03-01 21:35:00,35.7,15.4,27.06,SE,135,2.9,2.9,43,0.00,,,0.00,VWS V14.01,2013-03-02 04:35:00,
2013-03-01 21:40:00,35.4,15.7,27.06,SW,225,5.3,9.8,44,0.00,,,0.00,VWS V14.01,2013-03-02 04:40:00,
2013-03-01 21:45:00,35.4,15.7,27.06,SSW,202,3.1,9.8,44,0.00,,,0.00,VWS V14.01,2013-03-02 04:45:00,
2013-03-01 21:50:00,35.2,15.5,27.06,South,180,0.0,3.1,44,0.00,,,0.00,VWS V14.01,2013-03-02 04:50:00,
2013-03-01 21:55:00,34.8,16.1,27.06,South,180,4.0,9.8,46,0.00,,,0.00,VWS V14.01,2013-03-02 04:55:00,
2013-03-01 22:00:00,34.8,16.1,27.06,SSW,202,6.2,9.8,46,0.00,,,0.00,VWS V14.01,2013-03-02 05:00:00,
2013-03-01 22:04:00,34.8,16.1,27.06,SSE,158,0.0,6.2,46,0.00,,,0.00,VWS V14.01,2013-03-02 05:04:00,
2013-03-01 22:09:00,35.0,16.3,27.05,NNW,338,2.4,6.2,46,0.00,,,0.00,VWS V14.01,2013-03-02 05:09:00,
2013-03-01 22:12:00,35.2,16.5,27.05,SW,225,0.0,6.2,46,0.00,,,0.00,VWS V14.01,2013-03-02 05:12:00,
2013-03-01 22:17:00,35.4,16.7,27.05,SSW,202,3.1,3.1,46,0.00,,,0.00,VWS V14.01,2013-03-02 05:17:00,
2013-03-01 22:22:00,35.4,17.2,27.04,SSE,158,0.0,3.1,47,0.00,,,0.00,VWS V14.01,2013-03-02 05:22:00,
2013-03-01 22:27:00,35.9,17.6,27.04,SSW,202,5.5,6.4,47,0.00,,,0.00,VWS V14.01,2013-03-02 05:27:00,
2013-03-01 22:32:00,36.3,18.0,27.04,East,90,2.2,2.2,47,0.00,,,0.00,VWS V14.01,2013-03-02 05:32:00,
2013-03-01 22:37:00,36.8,18.5,27.04,South,180,3.8,6.9,47,0.00,,,0.00,VWS V14.01,2013-03-02 05:37:00,
2013-03-01 22:42:00,37.2,18.3,27.04,SSW,202,7.1,7.1,46,0.00,,,0.00,VWS V14.01,2013-03-02 05:42:00,
2013-03-01 22:47:00,37.4,18.5,27.04,SW,225,5.3,5.3,46,0.00,,,0.00,VWS V14.01,2013-03-02 05:47:00,
2013-03-01 22:52:00,37.2,18.3,27.03,SSW,202,2.9,5.3,46,0.00,,,0.00,VWS V14.01,2013-03-02 05:52:00,
2013-03-01 22:57:00,37.2,17.8,27.03,South,180,1.3,5.3,45,0.00,,,0.00,VWS V14.01,2013-03-02 05:57:00,
2013-03-01 23:02:00,36.8,17.5,27.03,WSW,248,1.5,1.5,45,0.00,,,0.00,VWS V14.01,2013-03-02 06:02:00,
2013-03-01 23:08:00,36.6,17.8,27.03,SSW,202,0.0,1.5,46,0.00,,,0.00,VWS V14.01,2013-03-02 06:08:00,
2013-03-01 23:13:00,36.5,17.7,27.03,SSE,158,0.0,3.8,46,0.00,,,0.00,VWS V14.01,2013-03-02 06:13:00,
2013-03-01 23:18:00,36.3,18.0,27.03,WNW,292,1.7,2.0,47,0.00,,,0.00,VWS V14.01,2013-03-02 06:18:00,
2013-03-01 23:23:00,36.3,18.0,27.03,WSW,248,0.0,2.0,47,0.00,,,0.00,VWS V14.01,2013-03-02 06:23:00,
2013-03-01 23:28:00,36.1,17.8,27.03,WSW,248,0.0,2.0,47,0.00,,,0.00,VWS V14.01,2013-03-02 06:28:00,
2013-03-01 23:33:00,36.1,17.8,27.03,West,270,0.0,0.0,47,0.00,,,0.00,VWS V14.01,2013-03-02 06:33:00,
2013-03-01 23:38:00,35.7,17.5,27.03,West,270,0.0,0.0,47,0.00,,,0.00,VWS V14.01,2013-03-02 06:38:00,
2013-03-01 23:43:00,35.6,17.4,27.03,West,270,0.0,0.0,47,0.00,,,0.00,VWS V14.01,2013-03-02 06:43:00,
2013-03-01 23:48:00,35.4,17.2,27.02,West,270,0.0,0.0,47,0.00,,,0.00,VWS V14.01,2013-03-02 06:48:00,
2013-03-01 23:53:00,35.2,17.5,27.02,WNW,292,0.0,0.0,48,0.00,,,0.00,VWS V14.01,2013-03-02 06:53:00,
2013-03-01 23:58:00,34.8,17.1,27.02,WNW,292,0.0,0.0,48,0.00,,,0.00,VWS V14.01,2013-03-02 06:58:00,